N1LTP Weather Reports


Display with metric or nautical units.
time (UTC)temp
F
wind
direction
speed
MPH
gust
MPH
rain 1hr
in
rain 24hr
in
rain mn
in
humidity
%
barometer
mb
20260904031532 68 76 0.0 0.0 0.00 0.23 0.23 89 1010.7
20260904030032 68 76 0.0 0.0 0.00 0.23 0.23 89 1010.7
20260904024532 68 76 0.0 0.0 0.00 0.23 0.23 89 1010.8
20260904023031 69 76 0.0 0.0 0.00 0.23 0.23 89 1011.1
20260904021533 69 76 0.0 0.0 0.00 0.23 0.23 89 1011.1
20260904020030 69 76 0.0 0.0 0.00 0.23 0.23 89 1011.2
20260904014530 70 76 0.0 0.0 0.00 0.23 0.23 89 1011.2
20260904013033 70 76 0.0 0.0 0.00 0.23 0.23 89 1011.5
20260904011537 70 76 0.0 0.0 0.00 0.23 0.23 88 1011.5
20260904010043 70 76 0.0 0.0 0.00 0.23 0.23 88 1011.4
20260904004531 71 76 0.0 0.0 0.00 0.23 0.23 87 1011.3
20260904003029 71 76 0.0 0.0 0.00 0.23 0.23 87 1011.0
20260904001526 72 76 0.0 0.0 0.00 0.23 0.23 87 1011.0
20260904000026 72 76 0.0 0.0 0.00 0.23 0.23 87 1010.6
20260903234533 73 76 0.0 0.0 0.00 0.23 0.23 86 1010.9
20260903233025 73 76 0.0 0.0 0.00 0.23 0.23 86 1010.7
20260903231525 74 76 0.0 0.0 0.00 0.23 0.23 86 1010.8
20260903230025 74 76 0.0 0.0 0.00 0.23 0.23 85 1010.4
20260903224526 75 76 0.0 1.0 0.00 0.23 0.23 85 1010.7
20260903223026 75 76 0.0 3.0 0.00 0.23 0.23 85 1010.7
20260903221521 75 76 0.0 2.0 0.00 0.23 0.23 84 1011.0
20260903220021 76 76 0.0 2.0 0.00 0.23 0.23 84 1010.9
20260903214518 76 76 0.0 0.0 0.00 0.23 0.23 84 1010.7
20260903213027 76 76 0.0 1.0 0.00 0.23 0.23 84 1010.6
20260903211547 76 76 1.0 4.0 0.00 0.23 0.23 83 1010.7
20260903210017 77 78 0.0 2.0 0.00 0.23 0.23 83 1010.7
20260903204515 77 78 1.0 4.0 0.00 0.23 0.23 83 1010.7
20260903203014 77 80 1.0 6.0 0.00 0.23 0.23 83 1010.8
20260903201512 76 66 1.0 2.0 0.00 0.23 0.23 83 1011.0
20260903200011 77 65 1.0 5.0 0.00 0.23 0.23 83 1010.9
20260903194510 76 84 0.0 4.0 0.00 0.23 0.23 84 1011.0
20260903193008 76 94 1.0 4.0 0.00 0.23 0.23 84 1011.1
20260903191513 76 94 0.0 2.0 0.00 0.23 0.23 83 1011.3
20260903190004 77 94 1.0 3.0 0.00 0.23 0.23 83 1011.3
20260903184502 77 94 1.0 4.0 0.00 0.23 0.23 82 1011.5
20260903183100 77 94 2.0 4.0 0.00 0.23 0.23 82 1011.5
20260903181558 78 329 0.0 2.0 0.00 0.23 0.23 83 1011.7
20260903180106 78 329 0.0 3.0 0.00 0.23 0.23 81 1011.7
20260903174609 77 348 1.0 3.0 0.00 0.23 0.23 82 1011.8
20260903173055 77 348 1.0 5.0 0.00 0.23 0.23 83 1011.8
20260903171549 76 332 2.0 5.0 0.00 0.23 0.23 85 1012.0
20260903170105 74 316 1.0 6.0 0.00 0.23 0.23 87 1012.0
20260903164549 73 339 0.0 3.0 0.00 0.23 0.23 89 1011.9
20260903163036 72 336 0.0 2.0 0.00 0.23 0.23 90 1011.9
20260903161534 72 333 0.0 4.0 0.00 0.23 0.23 91 1011.9
20260903160033 71 350 0.0 2.0 0.00 0.23 0.23 92 1012.1
20260903154528 71 360 1.0 5.0 0.00 0.23 0.23 92 1012.4
20260903153025 71 340 1.0 4.0 0.00 0.23 0.23 92 1012.6
20260903151525 71 342 0.0 2.0 0.00 0.23 0.23 92 1012.7
20260903150027 70 338 0.0 2.0 0.00 0.23 0.23 92 1012.8
20260903144519 70 338 0.0 1.0 0.00 0.23 0.23 92 1013.1
20260903143017 70 338 0.0 6.0 0.00 0.23 0.23 92 1013.2
20260903141519 69 346 0.0 3.0 0.00 0.23 0.23 93 1013.4
20260903140012 69 346 0.0 2.0 0.00 0.23 0.23 92 1013.7
20260903134511 69 346 0.0 1.0 0.00 0.23 0.23 93 1013.7
20260903133010 68 346 0.0 0.0 0.00 0.23 0.23 92 1013.6
20260903131507 68 346 0.0 1.0 0.00 0.23 0.23 92 1013.6
20260903130006 67 346 0.0 2.0 0.00 0.23 0.23 92 1013.7
20260903124503 67 346 0.0 2.0 0.00 0.23 0.23 92 1013.8
20260903123100 66 346 0.0 1.0 0.01 0.23 0.23 92 1013.9
20260903121558 66 346 0.0 0.0 0.03 0.23 0.23 92 1014.1
20260903120055 65 346 0.0 2.0 0.04 0.23 0.23 92 1014.2
20260903114554 65 332 0.0 2.0 0.05 0.23 0.23 92 1014.5
20260903113051 65 328 0.0 4.0 0.04 0.22 0.22 91 1014.6
20260903111620 64 293 0.0 3.0 0.03 0.20 0.20 91 1014.4
20260903110059 64 43 0.0 2.0 0.02 0.19 0.19 91 1014.5
20260903104600 64 44 0.0 1.0 0.03 0.18 0.18 91 1014.3
20260903103047 64 44 0.0 2.0 0.08 0.18 0.18 91 1014.1
20260903101548 63 48 0.0 1.0 0.08 0.17 0.17 90 1014.1
20260903100043 63 48 0.0 2.0 0.08 0.17 0.17 90 1014.1
20260903094540 63 71 0.0 1.0 0.08 0.15 0.15 90 1014.4
20260903093042 63 74 0.0 0.0 0.06 0.10 0.10 89 1014.5
20260903091537 63 74 0.0 0.0 0.09 0.09 0.09 89 1014.5
20260903090040 63 74 0.0 1.0 0.09 0.09 0.09 89 1014.6
20260903084536 63 74 0.0 1.0 0.07 0.07 0.07 88 1014.8
20260903083031 63 74 0.0 0.0 0.04 0.04 0.04 88 1015.3
20260903081531 63 74 0.0 1.0 0.00 0.00 0.00 87 1015.4
20260903080029 63 74 0.0 0.0 0.00 0.00 0.00 87 1015.2
20260903074527 63 74 0.0 0.0 0.00 0.00 0.00 86 1015.5
20260903073036 63 74 0.0 0.0 0.00 0.00 0.00 86 1015.7
20260903071523 63 74 0.0 0.0 0.00 0.00 0.00 86 1016.0
20260903070033 63 74 0.0 1.0 0.00 0.00 0.00 85 1016.3
20260903064519 63 74 0.0 1.0 0.00 0.00 0.00 86 1016.5
20260903063016 63 74 0.0 1.0 0.00 0.00 0.00 86 1016.8
20260903061531 63 74 0.0 1.0 0.00 0.00 0.00 86 1017.0
20260903060013 62 74 0.0 0.0 0.00 0.00 0.00 85 1017.2
20260903054510 62 74 0.0 0.0 0.00 0.00 0.00 86 1017.6
20260903053010 62 74 0.0 0.0 0.00 0.00 0.00 86 1017.6
20260903051510 62 74 0.0 0.0 0.00 0.00 0.00 86 1017.9
20260903050010 62 74 0.0 0.0 0.00 0.00 0.00 85 1018.2
20260903044508 62 74 0.0 0.0 0.00 0.00 0.00 86 1018.3
20260903043004 62 74 0.0 0.0 0.00 0.00 0.00 85 1018.1
20260903041502 62 74 0.0 0.0 0.00 0.00 0.00 85 1017.9
20260903040108 62 74 0.0 0.0 0.00 0.00 0.00 86 1017.7
20260903034558 62 74 0.0 0.0 0.00 0.00 0.00 85 1018.1
20260903033056 62 74 0.0 0.0 0.00 0.00 0.00 85 1018.5